Wind_Speed
9 8 8 8 8 8 8 8 8 8 9 9 10 11 13 15 15 16 16 15 14 14 14 13 13 14 15 15 16 16 16 16 16 16 16 16 16 13 10 8 8 7 7 8 8 9 10 11 12 14 15 15 15 15 15 15 15 14 14 14 14 13 13 12 12 11 11 12 11 11 12 14 15 15 15 16 16 16 17 17 18 19 19 19 19
9 8 9 8 8 7 8 7 7 7 7 8 8 9 10 12 13 15 15 14 14 13 13 13 12 13 14 14 15 14 15 15 16 16 16 16 16 14 12 10 8 7 7 7 8 9 10 11 13 14 15 15 15 14 14 14 14 14 13 13 13 12 11 10 10 10 10 11 10 11 12 14 15 15 16 16 17 17 18 19 19 20 20 20 20
11 9 10 9 8 7 7 6 6 6 6 6 6 7 8 10 11 12 13 13 13 13 12 12 12 13 13 14 14 13 14 15 15 15 15 15 15 14 13 11 10 8 8 7 8 9 11 12 13 14 15 14 14 14 14 13 13 13 13 12 12 11 10 9 9 9 10 10 9 9 10 12 15 16 16 16 17 18 18 19 19 20 20 20 19
14 11 10 9 9 7 6 5 5 5 4 4 5 5 7 8 9 10 10 12 13 13 12 12 12 12 13 13 13 13 13 14 14 14 14 14 14 14 13 12 11 10 8 8 8 9 11 12 13 14 14 14 13 13 13 13 12 12 12 11 10 9 9 9 9 9 9 10 9 8 8 12 15 15 16 16 17 17 18 19 19 20 20 19 18
14 12 12 10 9 8 6 5 4 4 3 2 3 4 5 6 8 8 8 10 11 12 12 12 11 11 12 12 12 12 12 13 14 14 13 14 14 14 13 13 12 10 9 8 9 10 11 12 13 14 13 13 13 13 12 12 12 12 11 10 9 8 8 9 9 9 9 11 10 7 9 13 15 15 16 17 17 18 19 19 20 19 19 18 17
12 12 12 11 10 9 7 5 4 3 3 1 1 3 4 5 6 6 7 8 9 11 12 11 11 10 11 11 11 11 12 12 13 13 13 13 13 13 13 13 12 11 10 9 10 10 11 12 13 13 13 12 12 12 11 11 11 11 9 9 8 8 8 8 9 9 11 12 12 11 12 14 14 16 17 18 18 19 20 20 20 19 18 17 16
12 11 11 12 11 10 8 7 5 4 3 2 1 2 3 4 5 5 6 6 8 10 11 11 10 10 10 10 10 11 11 12 12 12 12 12 12 12 12 12 12 11 10 10 10 10 11 12 12 12 12 12 12 11 11 11 10 10 9 8 7 8 8 9 9 10 11 11 13 13 13 13 14 16 17 19 19 20 20 19 19 18 17 16 16
9 10 11 12 12 11 10 9 7 5 4 3 3 2 2 3 4 4 5 5 6 8 10 10 10 9 9 10 10 10 10 11 12 12 11 11 11 12 12 11 11 11 10 10 10 11 11 11 11 11 11 11 10 10 10 10 10 9 8 7 8 8 9 10 9 10 9 9 14 13 11 12 14 16 18 19 19 19 19 18 18 17 17 16 16
7 8 9 11 12 13 12 11 9 7 6 6 5 4 3 3 3 4 4 5 5 6 8 9 9 8 8 9 9 9 10 10 11 11 11 10 11 11 11 11 10 10 10 10 10 11 12 11 11 10 10 10 10 10 10 9 8 8 8 7 8 9 9 10 10 10 7 9 13 12 12 14 14 16 18 19 19 18 17 17 17 16 17 16 16
5 4 7 11 11 13 13 12 10 9 9 8 8 6 5 3 3 4 4 4 4 5 6 8 8 8 8 8 8 8 9 9 10 10 10 9 9 10 10 10 9 9 9 10 9 10 11 11 11 10 10 9 9 9 9 8 7 7 7 7 8 9 9 10 10 9 8 11 14 11 11 13 14 16 18 19 19 18 17 17 16 16 16 16 16
1 3 7 11 11 13 13 12 12 11 11 10 10 9 7 5 4 4 3 4 4 4 4 6 7 7 7 7 7 7 8 8 9 9 9 9 8 8 9 9 9 8 9 9 9 9 9 9 10 9 9 8 8 8 8 7 7 7 6 6 7 8 9 10 9 8 8 10 14 12 11 12 14 16 19 19 18 18 17 16 16 16 16 15 15
2 5 8 11 12 12 12 13 13 12 12 12 12 11 9 7 5 4 3 3 3 3 3 4 6 7 7 7 7 7 7 7 7 8 8 8 8 7 8 8 8 7 8 8 8 8 7 8 8 8 8 8 7 7 7 6 6 6 6 6 6 8 9 10 9 8 9 9 11 13 13 14 15 17 18 18 17 17 15 15 15 15 15 14 14
3 6 9 10 11 11 11 12 13 13 13 14 14 12 11 8 6 4 3 3 4 3 2 3 5 6 6 6 6 6 6 6 6 7 8 8 7 7 7 7 7 6 6 7 8 8 7 7 7 7 7 6 6 6 6 5 5 5 5 5 6 7 8 10 10 8 9 10 9 12 13 13 15 16 17 17 16 15 14 14 13 14 14 14 13
1 4 7 8 9 9 10 11 12 13 13 14 14 13 12 9 6 5 3 4 4 3 2 2 3 5 5 5 5 5 5 5 5 6 7 7 7 6 6 6 6 5 5 5 6 7 7 7 6 6 5 5 5 5 4 4 4 4 4 5 5 7 8 10 10 7 7 9 9 11 12 12 14 15 16 16 15 14 14 13 12 13 13 13 12
1 2 4 6 7 8 9 10 11 12 14 15 15 13 12 9 7 5 4 4 4 3 2 2 2 4 4 4 4 4 4 4 4 5 6 7 6 5 5 5 5 5 4 4 5 5 6 6 6 5 5 4 4 3 3 3 3 4 4 5 6 7 8 9 10 7 5 8 10 10 11 13 14 15 16 15 14 14 13 13 13 13 13 13 12
2 2 4 4 5 7 8 9 11 12 14 15 14 13 12 9 7 6 5 5 5 4 3 2 2 3 3 3 3 3 3 4 4 4 5 5 6 5 4 4 4 4 4 4 4 4 5 5 5 5 4 3 3 2 2 2 3 4 4 5 6 7 8 8 8 7 4 6 10 10 11 13 15 16 15 14 14 13 13 13 13 13 13 13 13
2 3 5 4 5 6 7 9 11 12 13 13 14 13 12 10 7 7 6 6 5 4 3 3 3 2 3 2 2 3 3 3 3 3 3 4 5 5 4 3 3 3 3 3 3 4 4 4 4 4 3 3 2 1 1 1 2 3 4 5 6 7 7 7 6 6 5 5 8 11 11 13 15 15 13 12 13 12 13 13 13 13 13 13 13
1 3 5 5 4 6 8 10 10 11 12 13 13 13 12 10 8 8 7 7 6 5 5 4 4 3 3 2 2 2 2 2 2 2 2 3 4 4 3 2 2 3 3 3 3 3 4 4 4 3 3 2 2 1 1 1 2 2 4 5 5 6 6 7 7 7 6 6 7 10 11 12 14 13 12 11 12 12 12 13 13 13 13 13 13
1 3 6 6 5 7 8 9 10 11 12 12 13 13 12 10 9 9 8 8 7 6 6 5 4 4 4 3 2 2 2 1 1 1 1 1 2 2 2 1 1 2 2 3 3 3 4 4 4 3 3 2 2 2 2 2 3 3 4 4 5 6 6 6 6 6 7 8 9 10 10 12 12 12 11 11 11 11 11 12 12 12 12 12 13
1 3 7 7 6 8 9 8 9 10 11 12 12 12 11 11 10 10 9 8 8 7 6 5 5 5 5 4 3 3 2 2 1 1 1 0 1 1 1 1 1 2 3 3 4 4 4 5 4 4 4 3 3 2 3 3 4 4 4 5 5 5 5 5 5 5 7 9 9 9 10 11 11 11 10 10 10 10 10 11 11 12 12 12 13
2 3 6 8 8 9 9 9 9 10 11 12 12 12 11 11 10 10 10 9 8 8 7 6 6 7 6 6 5 4 3 3 3 2 2 1 1 2 2 2 2 3 4 4 5 5 6 6 5 5 4 4 4 3 4 4 4 3 3 5 5 4 4 4 6 6 6 7 8 9 10 11 10 10 9 9 9 10 10 10 11 11 12 12 13
3 4 6 8 9 10 9 9 9 10 12 12 12 12 12 12 11 11 10 10 9 8 8 7 7 8 8 7 5 5 4 4 4 3 3 2 2 3 3 3 4 4 5 5 6 7 7 7 6 6 5 4 4 4 5 5 4 2 3 5 3 5 5 5 6 6 6 7 8 9 9 9 9 9 9 8 9 9 10 10 10 11 11 12 13
4 4 6 8 9 10 10 9 10 11 12 12 11 11 12 12 11 11 10 10 9 9 9 8 9 9 9 8 7 6 5 5 5 4 4 4 4 4 4 5 5 5 5 6 7 7 7 7 7 6 6 5 6 6 6 6 3 1 3 5 4 5 6 5 6 7 8 8 7 7 7 7 7 8 8 8 9 9 10 10 11 11 12 12 13
5 6 7 8 9 10 10 10 10 11 11 11 9 9 11 11 11 11 11 11 10 10 10 9 10 10 10 9 8 7 6 6 6 5 4 4 5 5 6 5 6 6 7 7 8 8 9 9 8 8 7 6 6 5 4 4 3 3 4 5 4 4 4 5 6 7 8 7 6 6 6 6 7 7 8 8 9 9 10 11 11 12 13 13 14
7 7 7 9 9 10 11 11 11 11 10 9 8 8 9 10 11 11 11 11 11 11 11 11 11 11 10 9 9 8 7 6 6 6 5 5 5 6 7 7 6 7 8 8 8 8 9 9 8 6 6 5 4 4 3 2 2 4 6 6 3 5 5 5 5 6 7 5 4 5 5 6 7 8 9 10 10 10 11 12 13 14 14 15 16
9 9 8 10 9 10 11 11 11 11 9 8 8 8 8 9 10 10 11 11 11 12 12 12 12 11 11 10 9 8 6 5 6 6 6 6 6 7 6 6 6 6 7 7 7 8 7 7 6 5 5 5 4 3 3 1 3 3 5 8 4 5 4 4 4 5 6 5 4 5 6 7 8 9 10 11 12 12 13 14 15 16 16 17 18
10 10 10 10 10 10 11 10 11 10 9 9 9 9 8 9 8 8 10 10 10 11 12 12 12 11 11 10 9 7 5 5 6 8 8 7 8 7 4 4 5 5 7 6 7 7 5 5 6 5 5 4 4 2 2 1 2 2 3 7 6 5 3 3 3 4 4 5 6 6 7 8 9 11 12 13 14 15 15 16 17 18 18 19 19
11 11 11 11 11 11 11 10 10 10 9 9 9 10 9 9 8 9 10 10 11 11 11 12 12 11 11 11 9 6 6 6 7 9 8 7 8 7 4 4 5 5 7 6 7 6 5 5 5 5 5 4 3 3 2 3 3 2 1 4 5 5 5 4 3 3 3 5 7 8 9 10 11 13 14 14 15 16 17 18 19 19 20 20 21
12 11 13 12 12 11 11 11 11 10 9 9 10 10 9 9 10 11 11 11 12 12 12 12 12 11 11 11 9 7 8 8 8 10 8 8 10 8 7 7 7 7 7 7 6 6 6 6 5 5 5 4 3 3 4 3 3 2 1 1 2 4 5 5 5 5 4 6 7 9 11 12 13 14 15 16 17 18 18 19 20 20 21 21 21
14 12 14 14 12 12 11 11 11 11 10 10 11 10 10 10 11 12 11 11 13 12 12 13 12 12 12 10 9 8 9 9 8 10 8 8 9 9 9 8 10 10 9 8 7 6 6 6 5 4 3 3 3 3 3 2 2 2 2 2 3 3 5 7 6 6 6 7 8 9 12 14 14 15 16 17 18 19 19 20 21 21 22 22 22
18 14 15 15 13 13 12 11 12 12 11 11 11 11 11 11 12 12 11 12 13 13 13 13 13 13 11 10 10 9 10 10 9 10 9 9 9 8 7 7 10 9 7 8 8 7 7 5 4 4 2 3 2 2 3 3 3 3 4 5 4 4 6 8 10 10 9 10 11 11 12 14 15 16 18 19 20 20 20 21 22 22 23 23 24
21 16 16 16 15 14 12 12 13 13 12 12 11 12 12 11 12 12 11 12 13 14 14 13 13 13 11 11 11 10 10 10 11 11 10 10 9 8 7 7 10 9 7 7 9 11 10 8 5 4 3 4 3 4 5 5 5 5 5 5 4 4 6 8 11 14 15 14 14 14 14 14 15 17 19 21 21 21 22 22 23 23 23 24 24
23 20 17 18 16 15 14 13 13 14 14 13 12 12 12 12 13 12 11 12 13 14 14 14 14 13 12 13 12 10 11 11 11 12 11 11 9 8 9 9 10 9 9 10 8 8 7 7 4 4 4 5 5 5 6 7 7 7 5 3 5 7 8 9 11 13 17 18 18 18 18 18 18 18 20 22 23 22 22 23 22 23 23 24 24
25 23 21 20 18 16 16 13 13 15 15 14 13 12 13 13 12 11 11 12 13 14 14 15 15 14 13 13 12 10 12 11 11 12 12 11 8 7 9 10 9 7 8 8 4 2 1 2 3 4 5 4 5 6 7 8 6 5 5 4 7 9 10 11 12 13 15 19 21 22 22 23 23 21 21 22 24 23 22 23 23 23 24 24 25
25 25 24 22 20 18 17 14 14 16 15 14 13 13 13 13 12 11 11 12 13 14 14 15 16 15 14 14 11 10 11 12 12 13 12 10 8 7 9 8 6 4 6 6 1 1 1 2 3 4 4 5 6 6 7 6 5 5 6 7 9 11 12 13 14 15 16 18 21 23 24 26 27 26 24 22 23 24 23 23 24 24 24 24 25
26 27 26 24 22 20 18 15 15 16 16 15 14 14 13 13 12 11 12 13 13 14 15 15 16 15 15 14 11 10 12 12 13 14 12 10 8 8 8 6 5 5 6 4 1 1 2 3 3 3 4 5 6 6 5 5 6 8 8 8 11 12 14 16 17 18 19 19 20 21 23 24 25 26 25 23 23 23 23 23 23 23 23 24 25
25 29 28 26 23 21 18 16 16 17 16 16 15 15 14 13 12 11 12 13 14 16 15 16 16 15 15 13 10 11 12 12 14 14 10 8 8 7 6 6 6 6 5 3 1 3 3 3 4 4 5 5 7 7 5 5 7 9 10 11 13 14 15 17 19 20 21 21 21 21 22 22 22 23 24 24 23 22 22 22 23 24 24 24 25
25 29 30 27 25 22 19 17 18 18 17 16 16 16 15 14 13 13 13 14 15 16 16 16 15 15 15 12 10 12 13 13 14 13 10 8 7 5 6 7 6 5 3 3 3 4 4 5 5 4 5 6 8 8 7 7 8 10 11 13 14 16 18 19 20 20 21 22 22 21 20 20 21 22 22 22 22 22 23 23 24 25 25 26 26
27 29 30 28 27 23 20 20 19 19 18 17 17 18 18 16 14 14 14 14 15 16 17 17 16 15 14 11 12 13 13 14 13 11 11 9 6 6 8 6 5 4 4 4 4 5 6 6 6 6 6 7 9 10 8 9 10 10 12 14 16 18 19 20 20 21 21 21 20 19 19 20 21 21 21 21 23 24 25 26 26 25 25 26 26
28 30 31 30 27 24 22 22 20 19 19 19 20 20 19 17 15 15 15 14 15 16 17 17 16 15 13 12 13 14 15 15 13 11 10 9 6 7 8 6 5 5 5 5 5 6 7 7 7 7 8 9 11 12 11 11 12 13 14 16 18 19 20 20 20 21 20 19 19 19 19 20 20 20 21 23 24 25 26 27 27 27 26 25 25
30 31 32 31 27 25 24 23 20 18 19 20 21 21 20 18 16 16 16 15 16 16 17 17 16 16 15 14 14 15 15 15 13 12 9 7 5 5 5 5 5 6 6 6 6 6 6 7 8 9 9 11 12 12 12 13 15 16 17 18 19 20 20 20 20 19 18 17 18 19 19 19 20 21 23 23 24 25 25 26 26 26 26 26 25
31 32 33 31 27 27 26 24 20 18 19 21 22 22 21 19 18 17 17 17 17 17 18 19 18 17 17 16 15 15 16 14 13 13 11 9 7 4 4 4 5 6 7 7 7 7 8 9 10 10 11 12 13 12 13 14 17 18 18 19 19 19 19 19 18 17 17 17 18 18 19 20 21 22 22 23 24 24 25 25 25 26 26 26 26
33 33 32 30 29 29 27 24 20 18 19 21 22 22 21 20 19 20 19 19 18 19 20 20 17 17 18 17 16 16 15 14 13 13 12 10 8 6 5 5 6 8 8 8 8 10 11 12 12 12 13 13 13 13 14 17 19 19 19 18 17 17 17 16 16 16 16 17 17 18 19 20 21 22 22 23 24 24 25 25 25 26 26 25 25
33 34 32 31 31 30 29 24 20 19 21 22 22 21 21 21 21 22 21 20 19 19 20 19 17 17 18 18 17 16 16 15 15 14 13 11 9 8 7 7 9 10 11 11 11 12 13 12 13 14 13 13 14 14 16 18 20 20 19 19 18 18 16 14 15 16 16 16 17 18 19 20 21 22 23 24 24 24 24 25 25 25 25 24 23
33 34 33 32 32 31 29 25 20 20 22 24 23 21 21 22 23 24 22 20 19 19 19 18 17 17 17 17 17 18 18 17 16 16 14 11 9 9 9 10 12 13 13 13 12 12 12 13 14 14 14 14 15 17 18 19 19 19 19 19 18 18 17 16 16 16 16 17 18 18 19 20 21 22 23 24 25 25 25 24 24 24 23 22 22
34 34 32 32 31 30 29 25 22 22 22 23 23 22 22 23 23 23 22 21 20 19 19 18 18 18 18 18 18 18 16 16 17 16 13 11 10 10 11 12 14 14 14 13 12 12 13 14 14 14 14 15 17 19 19 19 19 18 18 18 18 18 17 17 17 16 16 16 17 18 19 19 21 22 23 24 25 25 25 25 24 22 22 21 20
33 33 33 33 31 30 29 26 24 23 22 23 23 23 23 23 23 23 23 22 20 19 19 19 19 19 18 17 17 16 15 15 15 14 12 11 11 12 13 14 15 15 15 14 13 13 13 14 14 15 16 17 19 20 19 19 18 18 17 16 17 17 17 17 17 17 16 16 15 17 18 19 21 22 23 24 24 25 25 25 24 22 21 21 20
32 32 34 33 31 29 28 27 25 23 22 22 23 24 23 22 22 23 23 22 21 21 21 20 20 20 18 16 15 15 15 14 14 13 12 13 13 13 14 15 16 16 15 14 13 13 14 15 15 16 17 19 20 20 20 19 18 17 16 15 15 16 16 17 17 18 19 18 16 15 16 20 21 23 24 23 24 25 25 24 24 22 21 21 21
31 32 33 31 29 29 28 27 26 23 21 22 24 25 24 23 22 23 23 22 23 22 21 20 20 20 18 15 15 15 14 13 13 13 13 14 14 14 14 15 15 15 14 14 14 14 15 16 17 18 19 21 21 20 20 19 17 16 15 15 15 15 16 17 17 17 19 20 20 18 17 18 19 20 22 24 24 25 24 23 21 21 21 22 23
31 31 33 31 28 29 30 28 26 23 22 23 25 25 24 23 23 24 24 24 24 21 20 20 20 20 17 15 15 15 14 14 13 13 14 14 14 14 15 15 15 15 14 14 15 15 16 17 18 20 21 21 20 20 19 18 17 16 15 14 15 15 16 16 16 17 18 19 20 21 21 21 21 20 21 23 24 22 21 21 20 21 22 23 24
30 32 34 32 30 30 30 28 25 23 23 24 24 25 24 23 24 25 25 24 23 20 19 20 21 19 17 16 15 14 15 15 14 14 15 13 13 15 15 16 16 15 15 15 16 17 17 19 20 21 21 20 20 20 19 17 16 15 15 15 15 15 16 16 16 17 17 16 17 19 21 22 25 25 22 23 23 21 20 21 21 22 23 24 25
Wind_Direction
187 174 166 157 152 145 135 131 118 108 96 87 78 72 69 70 69 68 67 67 68 70 71 69 69 69 68 66 65 63 60 57 55 54 52 50 49 53 60 69 79 86 91 93 92 94 99 103 106 106 106 107 107 107 105 104 103 102 99 96 93 90 86 82 78 75 73 69 62 55 54 52 44 38 34 30 26 22 19 16 13 11 8 5 2
198 184 176 167 162 154 145 139 127 117 101 91 80 71 67 67 67 66 64 63 64 66 69 68 68 68 69 67 65 64 62 59 55 54 54 53 50 51 57 64 72 78 83 88 93 98 102 105 109 108 109 110 110 108 106 105 104 102 99 97 93 90 86 82 78 73 69 64 57 48 44 44 39 31 28 24 20 16 13 10 8 6 3 2 359
202 192 184 176 170 167 154 147 138 126 106 95 81 70 64 64 64 65 62 59 59 62 66 68 66 66 68 67 65 64 62 60 56 53 53 54 53 52 56 62 67 73 76 84 93 99 104 109 110 110 112 112 111 109 108 106 104 102 99 96 93 91 86 80 72 65 60 54 46 42 34 37 37 26 22 19 15 11 7 6 3 2 1 0 357
198 196 193 183 177 179 168 160 150 138 117 97 81 68 59 60 60 61 59 55 54 56 62 65 64 63 66 66 65 63 62 60 56 53 53 54 55 54 56 62 67 70 74 80 90 98 105 110 110 112 113 112 110 109 108 106 104 101 99 97 94 89 81 70 61 52 48 43 38 43 29 31 34 22 16 13 9 6 4 3 2 1 1 359 357
199 198 197 193 185 186 185 180 170 154 138 107 75 63 51 51 54 56 54 50 50 51 55 61 62 60 62 64 64 62 61 61 57 53 51 53 55 56 58 64 69 72 76 80 89 97 105 109 111 112 113 112 110 110 108 104 101 99 98 95 90 81 71 60 52 43 38 33 30 39 32 29 26 16 11 7 4 3 2 2 1 0 0 359 359
202 202 199 199 194 195 199 198 197 189 162 150 59 46 41 40 43 46 45 45 46 47 49 55 60 59 59 61 62 61 60 60 57 52 49 51 54 57 59 65 72 76 79 85 92 97 103 107 109 112 112 111 110 109 105 101 98 97 94 88 81 70 61 51 44 35 34 28 22 24 26 23 14 9 6 2 2 2 2 1 360 359 0 2 3
205 207 202 202 202 202 207 213 215 218 209 216 267 1 12 23 29 31 32 36 39 44 45 48 56 58 57 58 59 59 59 59 56 52 47 48 52 57 60 65 73 79 83 90 98 100 103 106 109 110 110 109 109 107 102 98 95 91 85 78 68 60 49 43 35 29 33 24 22 23 20 16 3 3 3 0 2 1 1 360 359 358 0 4 5
210 213 207 206 208 208 212 220 225 233 233 239 257 290 324 355 11 13 19 26 30 38 41 43 50 55 55 55 56 57 58 58 57 53 46 45 49 54 60 65 73 81 87 95 103 107 109 110 111 109 109 109 108 105 100 96 89 83 76 67 58 51 41 36 28 26 33 18 21 15 7 11 360 360 360 359 1 0 360 359 0 359 0 4 6
216 219 213 213 214 215 217 221 228 238 240 247 257 267 288 322 341 350 3 13 22 32 37 39 44 50 53 53 53 54 57 57 58 55 48 44 48 52 58 65 72 80 89 98 105 111 114 115 114 111 109 107 105 102 98 92 83 77 69 61 51 44 37 28 21 19 18 12 17 3 355 5 360 358 356 357 1 359 359 360 1 360 0 4 6
231 215 212 219 220 222 222 224 229 237 244 251 258 262 270 292 310 326 347 359 10 23 33 36 38 46 50 50 50 51 55 56 58 57 51 46 47 52 57 64 72 81 90 99 106 112 117 120 119 116 112 107 104 99 95 90 81 76 68 59 44 38 31 18 19 12 359 8 8 359 358 359 355 353 353 358 1 358 358 358 358 359 360 2 4
253 153 205 224 223 227 230 229 232 237 245 251 258 261 263 273 288 307 331 345 352 8 26 32 32 40 47 49 47 49 53 55 58 57 53 48 47 52 57 64 71 80 90 100 107 111 116 119 121 119 116 111 104 98 93 88 82 80 67 53 37 28 23 13 18 5 358 8 354 351 0 354 353 353 354 359 359 356 355 354 357 358 360 3 5
60 135 196 224 225 231 235 235 236 239 246 252 256 259 263 267 275 292 316 326 324 351 13 24 26 32 43 45 42 46 50 53 57 57 53 48 46 50 58 65 70 79 89 102 109 114 116 115 117 118 118 116 109 101 94 89 85 79 64 48 30 20 14 12 16 1 8 12 341 346 358 354 356 355 353 356 355 352 350 354 360 1 2 5 8
68 147 192 221 227 232 236 237 240 242 248 253 256 258 262 263 266 278 288 293 299 333 356 8 20 27 37 41 39 41 46 50 54 56 54 49 43 43 57 67 72 78 86 101 113 119 120 117 116 114 116 116 111 105 98 92 83 70 57 38 23 16 8 12 10 356 6 3 338 347 356 353 354 352 351 353 352 347 349 357 3 5 5 5 9
60 183 201 222 229 232 236 239 242 246 251 252 254 256 258 258 256 262 264 269 282 312 333 342 9 20 30 37 35 36 42 47 49 55 56 51 45 39 48 64 75 83 86 95 109 121 127 127 124 119 115 112 109 102 96 85 71 55 41 26 15 10 5 8 3 358 6 351 344 356 353 351 350 349 352 352 348 346 350 358 4 6 4 4 6
288 238 221 229 235 236 238 242 245 248 250 251 253 253 254 253 249 248 249 257 269 290 309 314 345 4 17 30 30 32 39 43 44 51 55 52 48 42 42 58 76 85 91 96 106 120 129 134 134 133 127 117 109 98 84 60 46 29 19 10 2 4 2 360 357 4 2 329 341 359 352 350 350 349 353 352 346 348 354 358 2 4 4 3 4
264 255 246 241 239 244 245 247 248 249 248 249 250 250 251 247 242 239 238 248 259 273 288 288 300 342 358 13 15 20 32 40 38 43 52 51 47 42 42 54 71 85 99 105 113 123 131 138 140 141 139 133 124 99 65 33 15 5 359 354 350 354 355 354 355 356 347 331 340 352 352 351 350 351 354 351 347 350 357 360 2 3 4 5 6
269 253 259 257 243 247 251 251 251 250 250 249 249 247 246 241 236 232 232 241 249 260 267 267 268 301 327 344 357 6 17 33 33 35 47 49 49 43 36 49 74 87 102 115 123 130 136 140 141 146 145 147 136 113 58 10 348 343 339 340 342 345 346 336 336 340 347 7 353 346 350 352 349 349 354 353 350 355 358 360 2 3 4 6 9
312 263 271 270 256 252 248 250 253 252 253 253 250 247 243 236 230 227 230 234 242 251 253 255 258 275 298 315 332 346 0 23 27 25 44 49 52 45 37 37 80 102 112 126 137 141 142 146 151 158 155 158 157 176 238 281 300 317 323 331 335 332 327 319 331 339 339 9 6 348 348 351 349 349 357 358 354 0 1 359 2 4 4 6 8
30 254 275 278 268 256 251 252 254 254 256 256 252 248 243 234 227 226 226 230 238 246 248 255 257 265 279 289 292 298 324 347 357 343 30 60 55 44 41 30 88 129 136 144 155 161 159 161 163 170 178 190 205 225 253 269 289 306 311 321 324 318 318 323 338 338 335 356 359 347 347 349 349 352 3 4 359 5 5 1 2 3 4 3 2
309 256 274 278 272 262 260 256 254 257 256 256 251 243 240 233 227 225 225 228 234 243 249 254 255 261 270 274 280 285 295 306 299 273 257 21 33 15 353 325 234 175 170 168 173 180 180 181 181 188 195 208 227 244 264 274 286 294 301 310 313 322 330 329 331 335 344 352 348 344 348 349 352 359 7 9 3 7 9 4 2 1 2 360 358
293 287 280 278 273 267 265 258 256 259 258 255 249 240 234 229 224 223 225 229 232 242 249 251 254 255 263 271 277 283 287 287 282 269 254 271 318 323 302 274 244 212 191 187 189 193 193 194 197 200 206 215 231 247 261 270 270 276 309 311 319 354 349 324 327 342 352 348 345 346 348 350 356 3 10 12 5 5 8 5 2 0 360 358 357
288 298 288 283 276 270 267 262 262 260 256 253 246 236 230 226 221 222 224 229 234 242 249 250 252 252 259 268 272 278 283 276 273 269 263 267 296 304 290 265 239 221 208 202 200 204 204 206 209 210 214 221 238 250 258 260 251 263 323 311 345 16 342 331 343 346 352 348 351 351 349 354 359 5 9 10 6 3 2 0 358 357 356 354 352
281 295 288 288 282 275 271 267 263 257 255 253 246 234 228 227 223 223 225 229 234 240 248 250 250 252 257 265 269 271 272 270 270 269 268 270 281 287 277 256 234 222 215 212 210 211 211 213 216 216 219 228 240 253 262 260 255 295 319 315 5 11 329 347 0 346 351 354 355 350 350 356 357 2 2 3 3 357 355 353 351 349 349 347 346
276 292 287 291 291 282 276 269 260 255 255 250 245 236 228 228 227 227 228 231 235 238 244 247 249 253 256 264 268 270 271 271 273 275 279 278 281 280 268 251 230 217 215 214 213 214 217 217 215 218 223 233 244 251 248 234 251 302 307 313 359 12 339 4 1 348 356 356 353 346 347 351 350 352 350 352 351 348 346 343 342 341 341 341 340
277 291 287 289 296 287 276 267 258 253 252 245 241 242 233 230 231 232 234 236 238 241 243 246 248 252 256 265 271 275 279 279 283 292 293 286 284 278 269 255 233 220 218 218 218 221 226 227 221 222 225 222 233 246 240 226 292 320 316 307 3 39 356 357 356 356 1 350 342 337 341 343 342 343 340 340 339 338 337 334 334 333 335 335 335
277 292 287 286 294 286 274 263 255 251 246 242 239 246 244 236 235 235 238 238 238 241 245 247 248 252 258 266 274 281 287 290 295 298 296 293 290 285 277 254 236 228 224 224 220 221 233 238 226 222 223 210 206 234 255 284 305 324 316 302 359 44 346 342 11 17 4 341 331 331 337 338 335 334 332 332 331 331 331 329 330 329 331 332 331
273 293 287 283 290 280 274 262 252 252 244 237 233 239 247 242 239 239 241 240 239 242 243 248 251 256 264 268 274 281 283 281 287 292 293 294 285 279 273 241 237 232 225 227 218 214 225 226 217 218 222 210 192 195 212 221 269 299 311 308 349 15 333 350 31 37 4 325 324 329 332 333 331 330 330 330 328 328 328 328 329 328 329 329 328
267 293 294 283 283 277 273 262 252 255 244 232 228 231 241 242 238 240 246 244 243 245 245 251 256 259 264 269 272 270 271 274 276 283 285 285 279 270 259 250 249 231 220 223 215 211 220 210 202 208 207 197 180 177 194 208 232 251 299 317 342 341 324 331 355 24 343 308 317 321 326 331 330 329 329 328 326 326 327 327 327 328 327 327 326
264 287 295 283 277 275 272 263 254 253 243 230 227 228 236 239 236 242 247 246 246 249 250 253 256 258 261 268 271 264 267 274 276 280 283 286 286 277 266 260 246 231 222 225 219 204 207 209 192 188 202 195 174 189 208 206 198 196 244 288 301 306 306 309 327 344 319 303 310 315 323 328 327 326 326 326 325 325 326 326 326 325 325 324 325
263 277 288 283 274 272 270 263 255 248 240 234 229 229 235 236 237 244 246 246 250 251 251 254 256 259 261 266 269 265 267 272 276 280 281 281 285 274 262 251 237 226 206 209 225 207 190 199 187 166 200 214 177 194 210 200 182 180 216 242 239 258 282 294 304 315 310 303 309 316 321 323 324 325 325 325 325 325 325 324 324 323 323 323 324
261 270 280 280 269 268 269 260 254 245 239 239 237 235 238 238 239 245 243 244 252 251 251 255 257 259 259 261 263 264 272 277 277 279 278 281 291 280 264 260 253 244 208 198 206 202 185 182 188 166 190 226 203 202 201 206 205 195 214 231 234 236 263 288 299 307 309 306 313 319 320 320 323 325 325 326 326 325 324 323 322 322 322 322 323
259 265 273 275 266 264 265 259 251 242 237 241 243 242 240 238 239 243 242 244 251 251 251 254 256 258 254 257 262 264 272 276 276 281 286 291 299 287 272 270 261 258 252 229 203 194 179 166 179 181 201 224 219 207 200 212 220 219 224 233 251 259 270 290 300 306 310 313 317 320 320 321 323 325 324 324 324 324 323 322 322 322 322 322 322
257 262 268 271 263 258 262 259 247 239 237 240 244 245 241 237 240 244 243 245 250 251 252 252 255 257 253 255 261 263 267 268 273 282 287 291 294 279 270 264 251 244 249 248 229 207 166 144 168 188 205 213 207 206 205 212 223 234 240 249 275 285 289 296 301 303 308 314 318 320 320 322 324 326 325 323 323 323 323 322 323 323 323 323 323
255 258 266 270 261 255 261 259 245 240 238 240 243 245 242 239 242 245 245 247 250 252 253 251 254 255 254 257 260 262 264 267 274 280 284 286 284 276 273 267 255 248 250 254 251 255 72 113 194 194 200 204 200 207 209 214 223 245 268 288 288 292 298 302 304 304 307 312 318 321 322 322 323 324 325 324 323 324 325 325 325 324 323 323 323
256 257 264 268 259 254 261 256 244 241 238 240 242 243 243 242 244 245 246 249 251 253 251 250 253 253 253 256 258 262 265 271 276 278 282 279 277 279 274 262 250 241 251 256 235 281 288 204 203 194 196 197 208 216 215 226 254 277 284 293 295 299 304 304 305 306 309 313 318 321 323 323 323 323 323 324 323 324 325 324 324 322 322 322 322
259 258 262 264 257 255 260 252 243 242 237 237 240 241 242 242 245 245 245 249 250 251 250 251 254 253 252 252 253 260 265 271 274 277 277 268 271 279 268 249 236 220 226 231 182 233 236 205 206 210 208 207 224 233 230 244 272 285 292 298 299 301 303 305 307 310 312 315 317 319 321 321 321 322 323 325 325 324 323 322 322 322 323 323 323
261 258 259 259 254 255 258 250 243 241 236 237 240 241 242 240 242 242 245 248 250 251 251 252 255 253 254 255 256 261 267 272 276 282 276 260 273 278 258 241 235 225 219 214 216 239 236 225 223 223 229 233 244 253 259 267 276 287 297 302 301 303 304 306 308 311 313 315 316 317 317 317 319 321 323 324 323 323 323 324 325 325 325 324 324
261 259 256 254 251 252 253 248 244 241 237 239 241 242 241 238 240 244 248 249 251 253 252 252 253 254 258 260 259 263 270 272 278 287 276 265 284 272 243 237 231 229 229 232 240 243 242 242 245 250 254 259 265 269 275 280 284 290 299 301 302 304 305 307 309 311 313 315 316 316 317 319 322 322 322 322 323 326 326 326 326 326 325 324 325
261 260 254 249 249 249 250 249 247 244 241 241 243 244 240 237 241 246 248 249 252 254 254 252 251 253 259 259 260 265 270 270 273 273 255 253 265 243 237 237 230 237 241 241 244 249 248 247 260 267 267 272 271 274 284 291 293 298 301 302 304 306 307 310 312 313 314 315 316 318 321 323 323 322 323 326 327 328 327 326 325 324 324 325 326
260 260 254 248 247 250 251 252 251 248 244 242 245 245 241 239 242 243 246 253 255 254 255 256 254 254 256 255 259 266 273 276 274 264 246 239 225 212 219 218 217 230 232 232 237 246 251 250 256 258 260 267 269 277 290 297 300 304 306 305 306 308 310 313 314 314 314 316 318 321 323 323 323 326 328 329 329 327 326 325 324 324 325 326 327
258 259 254 247 247 250 251 252 252 253 249 245 246 246 244 244 243 243 249 254 255 254 254 254 254 254 255 253 254 261 271 279 279 277 274 263 239 210 208 207 212 220 225 232 235 242 253 257 257 254 257 264 269 280 292 298 301 306 308 309 309 311 312 313 313 314 314 318 320 322 324 326 328 330 329 328 327 326 325 324 324 325 326 327 328
258 259 253 246 245 248 249 251 253 255 252 249 249 248 246 245 242 243 250 256 259 257 252 251 253 255 257 255 251 260 273 279 277 278 281 277 272 260 234 222 219 221 224 231 244 259 267 269 266 262 263 267 273 282 292 297 301 306 310 309 310 310 310 311 312 313 316 319 321 322 326 329 330 329 327 325 325 324 324 324 325 327 327 329 329
256 258 251 243 243 247 249 252 254 257 255 252 252 249 247 244 244 246 251 257 260 258 255 254 257 259 260 259 258 265 272 271 266 263 264 264 264 260 244 233 230 228 228 237 258 271 268 266 266 264 266 270 277 287 295 300 304 307 308 306 306 304 306 310 312 314 317 319 321 325 328 329 328 326 324 324 324 325 325 326 327 327 328 328 328
254 255 248 242 244 247 249 250 254 259 257 254 254 250 246 245 246 248 252 257 260 261 258 256 258 260 260 263 265 269 270 265 257 252 252 251 251 250 240 234 234 236 240 250 265 271 265 262 263 264 267 274 282 291 297 301 304 306 306 306 304 303 309 314 312 316 320 321 325 329 329 327 325 324 324 325 325 326 327 327 328 328 328 326 326
251 254 247 244 246 246 249 250 253 260 259 256 256 251 248 248 250 252 255 259 263 264 260 255 257 259 260 264 268 271 270 263 254 248 247 245 244 243 238 236 239 243 250 257 263 266 262 260 261 263 269 278 286 293 298 300 302 304 304 304 303 305 313 315 314 319 323 324 328 328 325 323 323 324 325 326 327 328 328 328 328 327 326 326 327
249 252 246 242 243 245 248 250 253 260 259 255 255 253 252 254 254 255 256 258 261 261 257 254 255 257 259 264 269 270 265 256 250 248 247 245 242 241 242 242 244 249 256 261 263 261 258 258 260 266 273 281 288 294 297 299 299 300 300 300 300 304 310 311 313 318 319 321 324 321 320 321 323 325 327 328 329 328 328 327 327 326 326 327 328
245 248 244 239 241 245 246 248 253 258 257 253 254 255 254 255 255 253 252 253 255 253 250 249 252 257 261 264 266 263 257 250 249 251 248 245 244 244 245 245 249 254 259 262 261 258 257 259 264 271 278 285 291 293 295 296 296 295 295 296 298 302 307 307 309 312 313 316 319 317 319 322 326 327 328 328 327 326 327 326 327 329 328 327 326
240 243 242 239 241 245 245 247 252 254 254 253 255 257 256 254 253 249 248 249 248 246 245 247 251 258 261 261 257 254 253 251 251 253 250 247 247 247 246 247 251 254 259 261 260 259 260 263 269 275 282 288 291 292 293 294 293 291 292 293 294 299 303 302 305 309 312 313 313 317 321 325 329 329 326 326 326 325 327 328 329 328 325 324 327
235 239 241 238 237 243 247 249 249 249 252 254 256 257 254 251 248 245 244 244 244 245 246 248 253 259 260 256 251 250 252 252 250 250 248 247 247 246 246 248 252 256 260 262 261 262 264 268 273 279 284 287 288 290 291 291 290 289 289 290 292 295 297 299 303 306 309 310 313 321 326 326 326 326 324 324 325 327 328 327 324 319 319 325 331
232 236 239 237 235 242 248 249 248 249 253 256 257 254 250 248 245 243 242 243 244 244 245 250 256 259 257 253 251 249 250 251 249 248 248 247 246 245 246 249 254 258 261 263 263 265 268 272 277 281 284 285 286 289 290 288 287 287 287 287 289 292 295 298 301 301 303 307 314 323 327 325 323 323 323 322 324 327 324 318 315 318 325 332 335
231 234 237 236 235 241 245 246 247 250 253 257 257 251 247 245 242 242 242 243 243 241 244 253 258 257 254 251 251 248 249 251 248 249 251 247 244 246 247 251 256 259 262 264 265 267 271 275 279 281 282 283 286 288 288 286 285 284 283 284 288 292 294 295 295 295 298 305 314 320 325 325 323 324 325 322 323 324 317 314 321 329 334 334 335
Height
3182 3182 3183 3183 3184 3184 3184 3185 3185 3184 3184 3184 3184 3183 3182 3182 3181 3181 3181 3181 3181 3181 3180 3180 3180 3180 3180 3180 3180 3180 3180 3180 3180 3179 3179 3179 3179 3179 3179 3179 3179 3179 3179 3179 3179 3179 3179 3179 3179 3179 3180 3180 3181 3181 3182 3182 3182 3183 3183 3184 3184 3184 3184 3184 3184 3184 3184 3184 3184 3184 3183 3183 3182 3182 3182 3181 3181 3180 3180 3179 3178 3177 3177 3176 3175
3181 3182 3183 3183 3184 3184 3184 3184 3184 3184 3184 3184 3184 3183 3183 3182 3182 3181 3181 3181 3182 3181 3181 3180 3180 3180 3180 3180 3180 3180 3180 3180 3180 3180 3179 3179 3179 3179 3179 3179 3180 3180 3180 3180 3180 3180 3180 3180 3180 3180 3181 3181 3182 3182 3183 3183 3184 3184 3184 3185 3185 3185 3185 3185 3185 3185 3185 3185 3185 3185 3184 3183 3183 3183 3182 3182 3181 3181 3180 3179 3178 3178 3177 3176 3175
3181 3182 3182 3183 3183 3184 3184 3184 3184 3184 3184 3184 3184 3184 3183 3182 3182 3182 3182 3182 3182 3182 3181 3181 3181 3180 3180 3180 3180 3180 3180 3180 3180 3180 3180 3179 3179 3179 3179 3180 3180 3180 3180 3180 3180 3180 3180 3181 3181 3181 3182 3182 3183 3183 3184 3184 3185 3185 3185 3186 3186 3186 3186 3186 3186 3186 3186 3186 3185 3185 3185 3184 3183 3183 3183 3182 3182 3181 3180 3179 3179 3178 3177 3176 3175
3180 3182 3182 3183 3183 3184 3184 3184 3184 3184 3184 3184 3184 3184 3183 3183 3183 3183 3183 3183 3183 3182 3182 3182 3181 3181 3180 3180 3181 3180 3180 3180 3180 3180 3180 3180 3179 3179 3179 3180 3180 3180 3181 3181 3181 3181 3181 3181 3181 3182 3183 3183 3184 3184 3185 3185 3186 3186 3186 3186 3187 3187 3187 3187 3187 3187 3186 3186 3186 3186 3186 3184 3184 3184 3183 3183 3182 3181 3180 3180 3179 3178 3177 3176 3174
3180 3181 3182 3182 3183 3183 3183 3184 3184 3184 3184 3184 3184 3184 3184 3183 3183 3183 3183 3183 3183 3183 3183 3182 3182 3181 3181 3181 3181 3181 3181 3180 3181 3181 3181 3180 3180 3180 3180 3180 3180 3180 3181 3181 3181 3182 3182 3182 3182 3183 3184 3184 3185 3185 3186 3186 3186 3187 3187 3187 3187 3187 3187 3187 3187 3187 3187 3186 3186 3186 3185 3184 3184 3184 3183 3183 3182 3181 3180 3179 3179 3177 3176 3175 3174
3180 3180 3181 3182 3182 3183 3183 3184 3184 3184 3184 3184 3184 3184 3184 3184 3184 3184 3184 3184 3183 3183 3183 3183 3182 3182 3181 3181 3181 3181 3181 3181 3181 3181 3181 3181 3180 3180 3180 3180 3180 3180 3181 3181 3182 3182 3182 3183 3183 3184 3184 3185 3185 3186 3186 3187 3187 3187 3187 3188 3188 3188 3188 3188 3187 3187 3187 3186 3186 3185 3184 3184 3184 3184 3183 3182 3182 3181 3180 3179 3178 3177 3176 3175 3174
3179 3180 3181 3182 3182 3183 3183 3183 3184 3184 3184 3184 3184 3185 3184 3184 3184 3184 3184 3184 3184 3184 3184 3183 3183 3182 3182 3182 3182 3182 3182 3182 3182 3182 3182 3182 3181 3180 3180 3180 3180 3181 3181 3181 3182 3182 3183 3183 3184 3184 3185 3185 3186 3186 3187 3187 3187 3188 3188 3188 3188 3188 3188 3188 3188 3187 3187 3186 3186 3184 3184 3185 3184 3184 3183 3182 3181 3180 3179 3178 3177 3176 3175 3174 3173
3179 3179 3180 3181 3182 3182 3183 3183 3184 3184 3184 3184 3184 3185 3185 3185 3185 3185 3185 3184 3184 3184 3184 3184 3184 3183 3183 3183 3182 3182 3182 3182 3182 3182 3183 3182 3182 3181 3181 3181 3181 3181 3181 3182 3182 3182 3183 3183 3184 3185 3185 3186 3186 3187 3187 3188 3188 3188 3189 3189 3189 3189 3188 3188 3188 3188 3188 3187 3186 3185 3185 3185 3185 3184 3183 3182 3181 3180 3179 3178 3177 3176 3175 3174 3172
3178 3179 3180 3180 3181 3182 3182 3183 3183 3184 3184 3184 3184 3185 3185 3185 3185 3185 3185 3185 3185 3184 3184 3184 3184 3184 3183 3183 3183 3183 3183 3183 3183 3183 3183 3183 3183 3182 3182 3182 3182 3182 3182 3182 3182 3183 3183 3183 3184 3185 3186 3186 3187 3187 3187 3188 3188 3189 3189 3189 3189 3189 3189 3189 3188 3188 3188 3187 3186 3186 3185 3185 3184 3184 3183 3182 3181 3180 3179 3178 3177 3176 3175 3173 3172
3178 3179 3180 3180 3180 3181 3181 3182 3183 3183 3184 3184 3184 3184 3185 3185 3185 3185 3185 3185 3185 3184 3184 3185 3184 3184 3183 3183 3183 3183 3183 3183 3183 3183 3183 3183 3183 3183 3183 3183 3182 3182 3182 3183 3183 3183 3183 3184 3184 3185 3186 3186 3187 3187 3188 3188 3189 3189 3189 3189 3189 3189 3189 3189 3188 3188 3187 3187 3186 3186 3186 3185 3184 3184 3183 3182 3180 3179 3178 3177 3176 3175 3174 3173 3172
3178 3179 3179 3179 3180 3180 3181 3182 3183 3183 3183 3183 3184 3184 3184 3185 3185 3185 3185 3185 3185 3185 3185 3185 3185 3184 3184 3184 3184 3184 3184 3183 3183 3183 3184 3184 3184 3183 3183 3183 3183 3183 3183 3183 3184 3184 3184 3184 3185 3185 3186 3187 3187 3188 3188 3188 3189 3189 3189 3189 3189 3189 3189 3189 3189 3188 3187 3187 3186 3185 3186 3186 3184 3183 3182 3181 3180 3179 3178 3177 3176 3175 3174 3173 3172
3178 3179 3179 3179 3179 3180 3181 3182 3182 3182 3182 3183 3183 3184 3184 3184 3185 3185 3185 3185 3185 3185 3185 3185 3185 3184 3184 3184 3184 3184 3184 3184 3184 3184 3184 3184 3184 3184 3184 3184 3184 3184 3184 3184 3184 3185 3185 3185 3186 3186 3186 3187 3187 3188 3188 3189 3189 3189 3189 3189 3189 3189 3189 3189 3189 3189 3187 3188 3187 3185 3185 3185 3184 3183 3182 3181 3180 3178 3177 3176 3175 3174 3173 3173 3172
3178 3178 3178 3178 3179 3179 3180 3181 3181 3181 3182 3182 3183 3183 3184 3184 3184 3185 3185 3185 3185 3185 3185 3185 3185 3185 3184 3184 3184 3184 3184 3184 3184 3184 3184 3185 3185 3185 3184 3184 3185 3185 3185 3185 3185 3185 3185 3186 3186 3187 3187 3188 3188 3188 3188 3189 3189 3189 3189 3189 3189 3189 3189 3189 3189 3188 3188 3188 3187 3185 3185 3184 3183 3183 3182 3181 3180 3178 3177 3176 3175 3174 3173 3172 3171
3177 3177 3178 3178 3178 3179 3179 3180 3180 3181 3181 3181 3182 3182 3183 3183 3184 3184 3185 3185 3185 3185 3185 3185 3185 3185 3184 3184 3184 3184 3184 3184 3184 3184 3184 3185 3185 3185 3185 3185 3185 3185 3186 3186 3186 3186 3186 3186 3187 3187 3188 3188 3189 3189 3189 3189 3189 3189 3189 3189 3189 3189 3189 3189 3189 3188 3188 3187 3186 3186 3185 3184 3184 3183 3182 3181 3179 3178 3177 3176 3175 3174 3173 3172 3171
3177 3177 3177 3177 3178 3178 3179 3179 3179 3180 3180 3180 3181 3182 3182 3183 3183 3184 3184 3184 3184 3184 3184 3184 3184 3184 3184 3184 3184 3184 3184 3185 3185 3185 3185 3185 3185 3186 3186 3186 3185 3186 3186 3187 3187 3187 3187 3187 3187 3188 3188 3189 3189 3189 3189 3189 3189 3189 3190 3190 3189 3189 3189 3189 3188 3188 3187 3186 3185 3186 3185 3184 3183 3182 3181 3180 3179 3178 3176 3175 3174 3173 3173 3172 3171
3177 3177 3177 3177 3177 3178 3178 3178 3179 3179 3179 3180 3180 3181 3182 3182 3183 3183 3184 3184 3184 3184 3184 3184 3184 3184 3184 3184 3184 3184 3185 3185 3185 3185 3185 3185 3185 3186 3186 3186 3186 3186 3186 3187 3187 3187 3187 3188 3188 3188 3188 3189 3189 3189 3190 3190 3190 3190 3190 3190 3189 3189 3189 3188 3188 3187 3187 3186 3185 3185 3185 3184 3183 3182 3181 3180 3179 3177 3176 3175 3174 3173 3172 3171 3170
3177 3177 3176 3177 3177 3177 3177 3178 3178 3178 3179 3179 3180 3181 3181 3182 3182 3183 3183 3183 3184 3184 3184 3184 3184 3184 3184 3184 3184 3184 3185 3185 3185 3185 3185 3185 3186 3186 3186 3187 3187 3186 3187 3187 3188 3188 3188 3188 3189 3189 3189 3189 3189 3190 3190 3190 3190 3190 3190 3190 3190 3189 3189 3188 3187 3186 3186 3186 3185 3185 3185 3184 3182 3182 3181 3180 3178 3177 3176 3175 3174 3173 3172 3171 3170
3177 3177 3176 3176 3177 3177 3177 3177 3177 3178 3178 3179 3179 3180 3180 3181 3181 3182 3182 3183 3183 3183 3183 3183 3183 3183 3183 3184 3184 3184 3185 3185 3185 3186 3186 3185 3186 3186 3186 3187 3187 3187 3187 3187 3188 3188 3188 3188 3189 3189 3189 3190 3190 3190 3190 3190 3190 3190 3190 3190 3190 3189 3188 3187 3186 3186 3186 3185 3185 3185 3184 3183 3182 3181 3181 3179 3178 3177 3176 3175 3174 3173 3172 3171 3170
3177 3177 3176 3176 3176 3176 3176 3176 3177 3177 3177 3178 3179 3179 3180 3180 3181 3181 3182 3182 3182 3183 3183 3183 3183 3183 3183 3183 3183 3184 3184 3185 3185 3185 3185 3185 3185 3186 3186 3186 3186 3187 3187 3187 3187 3188 3188 3188 3189 3189 3189 3190 3190 3190 3190 3190 3190 3190 3190 3189 3189 3188 3188 3187 3186 3186 3185 3184 3184 3184 3184 3183 3182 3181 3180 3179 3178 3177 3176 3175 3174 3173 3172 3171 3170
3176 3176 3176 3176 3176 3175 3175 3176 3176 3176 3177 3178 3178 3179 3179 3180 3180 3180 3181 3181 3182 3182 3182 3182 3182 3183 3183 3183 3183 3184 3184 3184 3185 3185 3185 3185 3185 3186 3186 3186 3186 3186 3186 3187 3187 3187 3188 3188 3188 3189 3189 3189 3190 3190 3190 3190 3190 3190 3189 3188 3188 3187 3187 3187 3186 3185 3184 3184 3184 3184 3183 3182 3181 3180 3180 3179 3178 3177 3176 3175 3174 3173 3172 3171 3170
3175 3175 3175 3175 3175 3174 3174 3175 3175 3176 3176 3177 3177 3178 3178 3179 3179 3180 3180 3181 3181 3181 3181 3182 3182 3182 3182 3183 3183 3183 3184 3184 3185 3185 3185 3185 3185 3186 3186 3186 3186 3186 3186 3186 3186 3187 3187 3187 3188 3188 3188 3189 3189 3189 3190 3189 3189 3189 3189 3187 3187 3188 3187 3186 3186 3184 3184 3184 3184 3183 3183 3182 3181 3180 3180 3179 3178 3177 3176 3175 3174 3173 3172 3171 3170
3174 3175 3175 3175 3175 3174 3174 3174 3174 3175 3175 3176 3176 3177 3177 3178 3179 3179 3180 3180 3180 3181 3181 3181 3181 3182 3182 3182 3183 3183 3184 3184 3184 3185 3185 3185 3185 3185 3185 3185 3185 3185 3185 3186 3186 3186 3187 3187 3187 3187 3188 3188 3188 3189 3189 3188 3189 3189 3188 3186 3187 3188 3186 3185 3185 3184 3184 3184 3183 3183 3182 3181 3181 3180 3180 3179 3178 3177 3176 3175 3174 3173 3173 3172 3171
3174 3174 3175 3174 3174 3173 3173 3173 3174 3174 3174 3175 3175 3176 3177 3177 3178 3178 3179 3179 3180 3180 3180 3181 3181 3181 3181 3182 3182 3183 3183 3183 3184 3184 3185 3185 3185 3185 3185 3185 3185 3185 3185 3185 3185 3186 3186 3186 3186 3187 3187 3187 3187 3188 3188 3188 3188 3188 3187 3186 3187 3187 3185 3184 3184 3183 3183 3183 3182 3182 3182 3181 3180 3180 3179 3178 3178 3177 3176 3175 3174 3173 3172 3171 3170
3173 3174 3174 3174 3173 3173 3172 3173 3173 3173 3173 3174 3174 3175 3176 3177 3177 3178 3178 3179 3179 3180 3180 3180 3180 3180 3181 3181 3182 3182 3183 3183 3183 3184 3184 3184 3184 3184 3184 3184 3184 3184 3184 3185 3185 3185 3185 3185 3185 3186 3186 3186 3187 3187 3187 3188 3188 3188 3186 3186 3187 3187 3185 3184 3184 3183 3183 3182 3182 3182 3181 3181 3180 3179 3179 3178 3177 3177 3176 3175 3174 3173 3172 3171 3170
3173 3173 3173 3173 3173 3172 3172 3172 3172 3172 3172 3173 3174 3174 3175 3176 3177 3177 3178 3178 3179 3179 3179 3179 3179 3180 3180 3180 3181 3182 3182 3183 3183 3183 3183 3184 3184 3184 3184 3184 3184 3184 3184 3184 3184 3185 3185 3185 3185 3185 3186 3186 3186 3187 3187 3187 3187 3187 3185 3184 3186 3186 3184 3184 3183 3183 3183 3182 3182 3181 3181 3180 3179 3179 3178 3178 3177 3176 3175 3175 3174 3173 3172 3170 3169
3172 3172 3172 3172 3172 3172 3171 3171 3171 3171 3172 3172 3173 3174 3174 3175 3176 3177 3177 3178 3178 3178 3178 3179 3179 3179 3179 3180 3180 3181 3182 3183 3183 3182 3183 3183 3183 3183 3183 3184 3184 3184 3184 3184 3184 3184 3185 3185 3185 3185 3186 3185 3185 3186 3186 3186 3186 3186 3185 3183 3185 3186 3184 3183 3183 3183 3183 3182 3181 3181 3180 3179 3179 3178 3178 3177 3176 3176 3175 3174 3173 3172 3171 3169 3168
3171 3172 3172 3171 3171 3171 3170 3170 3170 3170 3171 3171 3172 3173 3174 3174 3175 3176 3176 3177 3177 3177 3177 3178 3178 3179 3179 3179 3180 3181 3181 3182 3182 3182 3182 3183 3182 3183 3184 3184 3184 3185 3184 3184 3184 3184 3184 3185 3185 3185 3185 3185 3184 3185 3186 3186 3186 3186 3185 3183 3182 3183 3183 3183 3182 3183 3182 3181 3181 3180 3179 3179 3179 3178 3177 3176 3175 3175 3174 3173 3172 3170 3169 3168 3167
3171 3171 3171 3171 3170 3170 3170 3170 3170 3170 3171 3171 3172 3173 3173 3174 3175 3175 3175 3176 3176 3176 3177 3177 3178 3178 3179 3179 3179 3180 3180 3181 3181 3181 3182 3182 3181 3182 3184 3184 3184 3184 3184 3184 3184 3184 3184 3184 3184 3185 3185 3185 3184 3185 3186 3186 3186 3186 3185 3183 3182 3182 3182 3181 3181 3182 3182 3181 3180 3179 3179 3178 3178 3177 3177 3176 3175 3174 3172 3171 3170 3169 3168 3167 3166
3169 3170 3170 3170 3170 3169 3169 3169 3169 3170 3170 3171 3172 3173 3173 3174 3174 3174 3175 3175 3175 3176 3177 3177 3178 3178 3178 3178 3179 3180 3180 3181 3181 3181 3182 3182 3181 3181 3183 3183 3183 3183 3183 3183 3183 3183 3183 3183 3184 3185 3185 3184 3184 3185 3185 3185 3185 3185 3185 3184 3183 3182 3181 3180 3180 3181 3181 3180 3179 3178 3178 3177 3177 3176 3176 3175 3174 3173 3172 3170 3169 3168 3167 3165 3165
3168 3169 3169 3169 3169 3169 3169 3169 3169 3169 3170 3171 3171 3172 3173 3173 3173 3174 3174 3175 3175 3175 3176 3176 3177 3178 3178 3178 3178 3179 3180 3181 3181 3182 3183 3183 3183 3183 3184 3185 3184 3183 3184 3184 3184 3183 3182 3182 3183 3183 3183 3184 3184 3184 3184 3184 3183 3184 3184 3183 3183 3182 3180 3179 3179 3180 3180 3178 3178 3178 3177 3176 3176 3175 3174 3174 3173 3172 3170 3169 3168 3167 3165 3164 3163
3166 3168 3168 3168 3168 3168 3168 3168 3168 3168 3169 3170 3171 3171 3172 3172 3173 3173 3174 3174 3174 3175 3175 3176 3177 3177 3177 3178 3178 3178 3179 3180 3181 3181 3181 3183 3183 3183 3183 3185 3185 3184 3184 3184 3183 3183 3182 3182 3182 3182 3182 3182 3183 3183 3183 3183 3183 3183 3183 3182 3181 3181 3180 3179 3178 3177 3178 3177 3177 3177 3177 3176 3175 3174 3173 3172 3171 3170 3169 3168 3166 3165 3164 3163 3162
3165 3166 3168 3167 3167 3168 3167 3167 3167 3168 3168 3169 3170 3171 3171 3172 3172 3172 3173 3173 3173 3174 3174 3175 3176 3176 3177 3177 3177 3178 3178 3179 3179 3178 3179 3181 3181 3181 3181 3182 3183 3182 3182 3182 3182 3183 3182 3181 3181 3181 3181 3182 3182 3182 3183 3183 3182 3182 3181 3181 3180 3180 3180 3179 3177 3175 3175 3175 3175 3175 3175 3175 3174 3173 3172 3171 3170 3169 3168 3167 3165 3164 3163 3161 3160
3164 3165 3166 3166 3167 3167 3166 3166 3167 3167 3168 3169 3169 3170 3170 3171 3171 3171 3172 3173 3173 3173 3174 3174 3175 3175 3176 3175 3176 3178 3177 3178 3178 3178 3179 3180 3180 3180 3180 3181 3181 3182 3182 3182 3183 3182 3179 3177 3179 3180 3180 3181 3181 3182 3182 3182 3181 3181 3180 3180 3180 3179 3179 3178 3177 3175 3173 3172 3173 3174 3173 3173 3173 3172 3171 3169 3168 3167 3166 3165 3164 3162 3161 3160 3158
3163 3163 3163 3165 3165 3165 3165 3165 3166 3166 3167 3168 3169 3169 3170 3170 3170 3171 3172 3172 3172 3173 3173 3173 3174 3174 3174 3174 3176 3177 3177 3177 3178 3178 3179 3180 3179 3179 3179 3180 3180 3181 3182 3182 3183 3179 3176 3176 3178 3179 3180 3180 3181 3181 3181 3181 3180 3180 3180 3179 3179 3178 3177 3177 3176 3175 3173 3171 3170 3171 3171 3170 3171 3171 3170 3168 3166 3165 3165 3163 3162 3161 3160 3158 3157
3162 3161 3162 3163 3164 3164 3164 3164 3165 3165 3166 3167 3168 3168 3169 3169 3170 3170 3171 3171 3171 3172 3172 3172 3173 3173 3173 3173 3174 3176 3176 3176 3177 3176 3177 3178 3178 3178 3178 3179 3179 3180 3181 3181 3180 3178 3177 3178 3178 3179 3179 3180 3180 3180 3180 3180 3179 3179 3179 3178 3178 3177 3176 3175 3175 3175 3174 3172 3170 3169 3168 3167 3167 3167 3168 3167 3165 3163 3163 3162 3160 3159 3158 3156 3155
3160 3160 3160 3162 3162 3162 3163 3164 3164 3165 3165 3166 3167 3167 3168 3169 3169 3170 3170 3170 3170 3171 3171 3171 3171 3171 3171 3172 3173 3174 3174 3175 3175 3175 3176 3176 3176 3177 3177 3177 3177 3179 3180 3179 3178 3178 3178 3178 3178 3179 3179 3179 3179 3179 3179 3179 3178 3178 3178 3177 3176 3175 3175 3174 3173 3173 3173 3172 3171 3169 3168 3167 3166 3165 3164 3164 3164 3162 3161 3160 3159 3158 3156 3155 3153
3158 3158 3158 3160 3160 3161 3162 3163 3163 3164 3165 3165 3166 3166 3167 3168 3168 3168 3169 3169 3169 3169 3170 3170 3170 3170 3170 3171 3172 3172 3173 3174 3174 3173 3174 3175 3175 3176 3176 3176 3176 3177 3178 3177 3176 3177 3177 3178 3178 3178 3178 3178 3178 3177 3178 3178 3177 3177 3176 3176 3175 3174 3174 3173 3172 3171 3170 3170 3170 3169 3168 3167 3166 3164 3163 3162 3162 3161 3160 3158 3157 3155 3154 3153 3151
3156 3156 3156 3157 3158 3159 3160 3161 3162 3163 3164 3164 3165 3165 3166 3166 3167 3167 3167 3168 3168 3168 3169 3169 3169 3169 3169 3170 3171 3171 3171 3173 3173 3172 3172 3173 3174 3174 3175 3175 3175 3176 3176 3175 3176 3176 3177 3177 3177 3177 3177 3177 3176 3176 3177 3177 3176 3176 3175 3175 3174 3173 3172 3172 3171 3170 3169 3168 3168 3167 3167 3166 3164 3163 3162 3161 3160 3159 3158 3156 3155 3154 3152 3150 3149
3153 3153 3154 3155 3156 3158 3159 3159 3160 3161 3162 3163 3163 3163 3164 3164 3165 3166 3166 3166 3167 3167 3167 3167 3167 3168 3168 3169 3169 3169 3170 3171 3172 3173 3172 3173 3174 3174 3174 3174 3174 3174 3174 3175 3175 3176 3176 3176 3176 3176 3176 3175 3175 3175 3175 3176 3175 3175 3174 3173 3172 3172 3171 3170 3169 3168 3168 3167 3166 3166 3165 3164 3163 3162 3161 3159 3158 3156 3155 3154 3153 3152 3150 3148 3147
3151 3151 3152 3153 3154 3156 3157 3157 3159 3160 3161 3161 3161 3161 3162 3162 3163 3164 3164 3165 3165 3165 3166 3166 3166 3166 3167 3168 3168 3168 3168 3168 3169 3171 3172 3173 3174 3175 3174 3174 3174 3174 3174 3174 3175 3175 3175 3175 3176 3175 3175 3175 3174 3174 3174 3174 3173 3173 3173 3172 3171 3170 3169 3168 3167 3167 3166 3165 3164 3164 3163 3163 3162 3160 3159 3157 3156 3155 3153 3151 3150 3149 3148 3147 3145
3148 3148 3149 3151 3153 3155 3155 3156 3157 3158 3159 3159 3159 3160 3160 3161 3162 3162 3163 3163 3163 3164 3164 3164 3165 3165 3166 3167 3167 3167 3167 3167 3166 3167 3168 3170 3171 3172 3172 3172 3172 3173 3173 3173 3174 3174 3175 3175 3175 3174 3174 3174 3173 3173 3173 3173 3172 3171 3171 3170 3169 3168 3167 3167 3166 3165 3165 3164 3163 3162 3162 3161 3160 3159 3157 3156 3154 3153 3152 3150 3148 3146 3145 3144 3143
3145 3146 3148 3149 3151 3152 3152 3154 3156 3157 3158 3158 3158 3159 3159 3160 3160 3161 3161 3161 3162 3162 3162 3163 3163 3164 3164 3166 3166 3166 3166 3166 3166 3165 3166 3166 3167 3169 3169 3170 3170 3171 3172 3172 3173 3173 3173 3174 3174 3173 3173 3173 3172 3172 3172 3171 3170 3170 3169 3168 3167 3167 3166 3165 3165 3164 3163 3162 3162 3161 3160 3159 3158 3157 3156 3154 3153 3152 3151 3149 3147 3145 3143 3142 3140
3142 3143 3146 3147 3148 3149 3150 3152 3154 3155 3156 3156 3156 3157 3157 3158 3159 3159 3159 3159 3160 3160 3160 3161 3162 3163 3163 3164 3165 3165 3165 3165 3165 3165 3165 3165 3166 3167 3168 3168 3169 3170 3170 3171 3171 3171 3172 3172 3172 3172 3172 3171 3171 3171 3171 3170 3169 3168 3168 3167 3166 3166 3165 3164 3163 3163 3162 3161 3161 3160 3159 3158 3157 3155 3154 3153 3152 3150 3149 3147 3146 3144 3142 3140 3138
3139 3141 3143 3144 3145 3147 3148 3150 3152 3154 3154 3154 3155 3155 3155 3156 3157 3156 3157 3158 3158 3158 3159 3160 3161 3162 3162 3162 3163 3164 3164 3164 3164 3164 3164 3165 3165 3166 3167 3167 3168 3168 3169 3170 3170 3170 3170 3171 3171 3171 3171 3170 3170 3169 3169 3168 3167 3166 3166 3165 3165 3164 3164 3163 3162 3161 3161 3160 3159 3158 3157 3156 3155 3154 3152 3151 3150 3149 3148 3146 3144 3142 3140 3139 3137
3136 3138 3140 3141 3143 3145 3146 3148 3150 3152 3153 3152 3153 3153 3153 3154 3154 3154 3155 3156 3157 3157 3158 3159 3160 3160 3161 3161 3161 3162 3162 3162 3162 3163 3163 3164 3165 3165 3166 3166 3167 3167 3168 3168 3169 3169 3169 3170 3170 3170 3169 3169 3168 3168 3167 3167 3166 3165 3164 3163 3162 3162 3162 3161 3160 3160 3159 3158 3157 3156 3156 3155 3153 3152 3151 3149 3148 3147 3146 3144 3143 3141 3139 3137 3136
3133 3136 3138 3139 3141 3142 3144 3146 3148 3150 3150 3150 3150 3151 3151 3151 3152 3153 3154 3154 3155 3156 3156 3157 3158 3159 3159 3159 3159 3160 3160 3160 3160 3161 3162 3163 3163 3164 3165 3165 3166 3166 3167 3167 3167 3168 3168 3168 3168 3168 3168 3168 3167 3166 3165 3165 3164 3163 3162 3161 3161 3160 3160 3159 3158 3158 3157 3157 3156 3155 3154 3153 3152 3150 3149 3148 3146 3145 3143 3142 3141 3139 3137 3136 3134
3131 3134 3135 3136 3138 3140 3142 3144 3145 3147 3148 3148 3148 3148 3149 3149 3150 3151 3152 3152 3153 3153 3154 3155 3156 3157 3158 3158 3158 3158 3158 3158 3159 3159 3161 3162 3162 3163 3164 3164 3165 3165 3165 3166 3166 3166 3167 3167 3167 3167 3166 3166 3165 3165 3164 3163 3163 3162 3161 3160 3159 3158 3158 3157 3156 3156 3155 3156 3155 3154 3153 3151 3150 3148 3147 3146 3145 3143 3141 3140 3138 3137 3135 3134 3133
3128 3131 3132 3133 3137 3138 3139 3142 3144 3145 3145 3145 3146 3146 3147 3148 3148 3149 3150 3150 3151 3151 3152 3154 3155 3155 3156 3156 3156 3156 3156 3157 3158 3159 3160 3160 3161 3162 3162 3163 3163 3164 3164 3164 3165 3165 3165 3165 3165 3165 3165 3164 3163 3163 3162 3162 3161 3160 3160 3159 3158 3157 3157 3156 3155 3153 3152 3153 3153 3153 3151 3149 3148 3146 3145 3144 3143 3141 3140 3138 3136 3134 3133 3132 3131
3125 3128 3129 3131 3134 3135 3137 3139 3141 3142 3143 3143 3143 3144 3145 3145 3146 3147 3147 3148 3149 3149 3151 3152 3153 3153 3154 3154 3154 3154 3155 3156 3157 3158 3158 3159 3160 3160 3161 3161 3162 3162 3163 3163 3163 3163 3164 3164 3164 3163 3163 3162 3162 3161 3161 3160 3160 3159 3158 3158 3157 3156 3155 3155 3153 3152 3150 3149 3149 3149 3149 3148 3147 3146 3143 3141 3140 3139 3137 3136 3135 3133 3131 3130 3128
3122 3124 3126 3129 3131 3133 3135 3136 3138 3140 3141 3141 3141 3141 3142 3143 3144 3144 3145 3146 3146 3148 3149 3150 3151 3152 3152 3153 3153 3153 3154 3155 3156 3156 3157 3158 3158 3159 3160 3160 3160 3161 3161 3162 3162 3162 3162 3162 3162 3162 3161 3161 3160 3160 3159 3158 3158 3157 3157 3156 3156 3155 3155 3154 3152 3151 3150 3148 3146 3145 3145 3144 3144 3144 3143 3140 3139 3137 3136 3135 3134 3132 3129 3128 3126
3119 3120 3123 3126 3128 3130 3132 3134 3136 3138 3138 3139 3139 3139 3140 3141 3141 3142 3143 3144 3145 3146 3147 3148 3149 3150 3150 3151 3151 3152 3153 3154 3155 3155 3155 3156 3157 3158 3158 3159 3159 3159 3160 3160 3160 3160 3161 3160 3160 3160 3159 3159 3158 3158 3157 3157 3156 3156 3156 3155 3155 3154 3153 3152 3151 3150 3149 3147 3145 3143 3142 3141 3139 3139 3140 3139 3137 3136 3135 3133 3131 3129 3127 3126 3124